Flag Weather past 2 weeks in Baton Rouge, Louisiana, U.S.A.

Now
67 °F

Sunny.


Feels Like: 67 °F
Forecast: 49 / 65 °F
Wind: 10 mph from Northwest

Location: Baton Rouge Metropolitan - Ryan Field

Current Time: Nov 24, 2014 at 2:34:41 PM

Latest Report: Nov 24, 2014 at 1:53 PM


Visibility: 10 mi

Pressure: 29.92 "Hg

Humidity: 44%

Dew point: 44 °F

Location of Baton RougeLocation

Historic Weather in Baton Rouge — Graph

°F

Baton Rouge temperature yesterday

Maximum temperature yesterday: 75 °F (at 2:53 PM)
Minimum temperature yesterday: 63 °F (at 12:53 AM)
Average temperature yesterday: 68 °F

Past Weeks' High & Low Weather Summary

 TemperatureHumidityPressure
High81 °F (Nov 11, 1:53 PM)97% (Nov 16, 9:53 PM)30.52 "Hg (Nov 16, 9:53 PM)
Low27 °F (Nov 19, 3:53 AM)22% (Nov 19, 3:53 PM)29.59 "Hg (Nov 23, 2:53 PM)
Average53 °F69%30.14 "Hg
* Reported Nov 9 12:53 PM — Nov 24 12:53 PM, Baton Rouge, Weather by CustomWeather, © 2014

Note: Actual official high and low records may vary slightly from our data, if they occured in-between our weather recording intervals... More about our weather records

Advertising

Baton Rouge weather history for previous 24 hours

 ConditionsComfort  
Time TempWeatherWind HumidityBarometerVisibility
12:53 PM
Nov 24
65 °FSunny.8 mph47%29.91 "Hg10 mi
11:53 AM63 °FSunny.9 mph52%29.92 "Hg10 mi
10:53 AM61 °FSunny.9 mph54%29.94 "Hg10 mi
9:53 AM60 °FSunny.8 mph60%29.94 "Hg10 mi
8:53 AM58 °FSunny.7 mph67%29.93 "Hg10 mi
7:53 AM59 °FScattered clouds.7 mph78%29.88 "Hg10 mi
6:53 AM60 °FSunny.5 mph80%29.84 "Hg10 mi
5:53 AM60 °FClear.6 mph93%29.81 "Hg8 mi
4:53 AM63 °FPassing clouds.6 mph93%29.77 "Hg10 mi
3:53 AM64 °FPassing clouds.9 mph97%29.75 "Hg7 mi
2:53 AM66 °FClear.9 mph90%29.73 "Hg8 mi
1:53 AM66 °FPassing clouds.9 mph90%29.72 "Hg10 mi
12:53 AM66 °FClear.10 mph90%29.72 "Hg9 mi
11:53 PM
Nov 23
67 °FPassing clouds.12 mph90%29.71 "Hg10 mi
10:53 PM67 °FPassing clouds.14 mph90%29.71 "Hg10 mi
9:53 PM68 °FPassing clouds.16 mph87%29.70 "Hg10 mi
8:53 PM69 °FPassing clouds.16 mph84%29.68 "Hg10 mi
7:53 PM70 °FPassing clouds.17 mph81%29.66 "Hg10 mi
6:53 PM70 °FPassing clouds.18 mph81%29.64 "Hg10 mi
5:53 PM69 °FClear.17 mph79%29.62 "Hg10 mi
4:53 PM70 °FSunny.15 mph73%29.61 "Hg10 mi
3:53 PM73 °FPassing clouds.20 mph57%29.61 "Hg10 mi
2:53 PM75 °FScattered clouds.20 mph54%29.59 "Hg10 mi
Weather by CustomWeather, © 2014

See weather overviewHow to use our weather pages